| time (UTC) | temp C | wind direction | speed KPH | gust KPH | rain 1hr cm | rain 24hr cm | rain mn cm | humidity % | barometer mb |
| 20260905230042 | 17 | 320 | 9.7 | 20.9 | 0.00 | 0.00 | 0.00 | 52 | 1015.2 |
| 20260905224539 | 17 | 331 | 4.8 | 16.1 | 0.00 | 0.00 | 0.00 | 53 | 1015.3 |
| 20260905223038 | 17 | 19 | 6.4 | 17.7 | 0.00 | 0.00 | 0.00 | 53 | 1015.4 |
| 20260905221536 | 17 | 14 | 6.4 | 17.7 | 0.00 | 0.00 | 0.00 | 53 | 1015.5 |
| 20260905220034 | 17 | 328 | 6.4 | 22.5 | 0.00 | 0.00 | 0.00 | 54 | 1015.5 |
| 20260905214531 | 16 | 355 | 6.4 | 19.3 | 0.00 | 0.00 | 0.00 | 55 | 1015.6 |
| 20260905213031 | 16 | 19 | 3.2 | 17.7 | 0.00 | 0.00 | 0.00 | 55 | 1015.7 |
| 20260905211529 | 16 | 61 | 6.4 | 20.9 | 0.00 | 0.00 | 0.00 | 56 | 1015.6 |
| 20260905210030 | 16 | 339 | 4.8 | 20.9 | 0.00 | 0.00 | 0.00 | 57 | 1015.6 |
| 20260905204528 | 15 | 38 | 6.4 | 17.7 | 0.00 | 0.00 | 0.00 | 57 | 1015.8 |
| 20260905203028 | 15 | 305 | 6.4 | 19.3 | 0.00 | 0.00 | 0.00 | 59 | 1016.0 |
| 20260905201527 | 14 | 322 | 8.0 | 16.1 | 0.00 | 0.00 | 0.00 | 59 | 1016.0 |
| 20260905200039 | 15 | 320 | 9.7 | 16.1 | 0.00 | 0.00 | 0.00 | 57 | 1016.1 |
| 20260905194526 | 16 | 319 | 6.4 | 16.1 | 0.00 | 0.00 | 0.00 | 54 | 1016.1 |
| 20260905193025 | 16 | 78 | 4.8 | 17.7 | 0.00 | 0.00 | 0.00 | 55 | 1016.2 |
| 20260905191529 | 16 | 50 | 3.2 | 14.5 | 0.00 | 0.00 | 0.00 | 55 | 1016.2 |
| 20260905190041 | 16 | 327 | 6.4 | 12.9 | 0.00 | 0.00 | 0.00 | 54 | 1016.2 |
| 20260905184522 | 15 | 316 | 4.8 | 14.5 | 0.00 | 0.00 | 0.00 | 55 | 1016.2 |
| 20260905183021 | 15 | 81 | 4.8 | 9.7 | 0.00 | 0.00 | 0.00 | 55 | 1016.3 |
| 20260905181525 | 15 | 322 | 4.8 | 12.9 | 0.00 | 0.00 | 0.00 | 57 | 1016.4 |
| 20260905180022 | 15 | 341 | 0.0 | 8.0 | 0.00 | 0.00 | 0.00 | 55 | 1016.5 |
| 20260905174538 | 17 | 75 | 0.0 | 3.2 | 0.00 | 0.00 | 0.00 | 49 | 1016.5 |
| 20260905173036 | 14 | 40 | 3.2 | 8.0 | 0.00 | 0.00 | 0.00 | 63 | 1016.6 |
| 20260905171537 | 13 | 287 | 1.6 | 8.0 | 0.00 | 0.00 | 0.00 | 64 | 1016.7 |
| 20260905170035 | 13 | 31 | 0.0 | 4.8 | 0.00 | 0.00 | 0.00 | 65 | 1016.7 |
| 20260905164535 | 12 | 47 | 1.6 | 8.0 | 0.00 | 0.00 | 0.00 | 69 | 1016.8 |
| 20260905163028 | 12 | 45 | 3.2 | 9.7 | 0.00 | 0.00 | 0.00 | 69 | 1016.7 |
| 20260905161527 | 12 | 284 | 1.6 | 9.7 | 0.00 | 0.00 | 0.00 | 68 | 1016.5 |
| 20260905160026 | 12 | 313 | 1.6 | 4.8 | 0.00 | 0.00 | 0.00 | 70 | 1016.5 |
| 20260905154524 | 12 | 317 | 3.2 | 8.0 | 0.00 | 0.00 | 0.00 | 71 | 1016.7 |
| 20260905153027 | 12 | 321 | 0.0 | 3.2 | 0.00 | 0.00 | 0.00 | 71 | 1016.4 |
| 20260905151519 | 11 | 63 | 1.6 | 3.2 | 0.00 | 0.00 | 0.00 | 73 | 1016.3 |
| 20260905150019 | 11 | 71 | 0.0 | 1.6 | 0.00 | 0.00 | 0.00 | 78 | 1016.4 |
| 20260905144511 | 10 | 70 | 0.0 | 0.0 | 0.00 | 0.00 | 0.00 | 82 | 1016.3 |
| 20260905143018 | 10 | 70 | 0.0 | 1.6 | 0.00 | 0.00 | 0.00 | 83 | 1016.2 |
| 20260905141505 | 8 | 70 | 1.6 | 3.2 | 0.00 | 0.00 | 0.00 | 85 | 1016.1 |
| 20260905140004 | 7 | 84 | 3.2 | 3.2 | 0.00 | 0.00 | 0.00 | 87 | 1015.9 |
| 20260905134502 | -17 | 0.0 | 0.0 | 0.00 | 0.00 | 0.00 | 1015.7 | ||
| 20260905133105 | -17 | 0.0 | 0.0 | 0.00 | 0.00 | 0.00 | 1015.7 | ||
| 20260905131605 | -17 | 0.0 | 0.0 | 0.00 | 0.00 | 0.00 | 1015.6 | ||
| 20260905130050 | -17 | 0.0 | 0.0 | 0.00 | 0.00 | 0.00 | 1015.5 | ||
| 20260905124543 | -17 | 0.0 | 0.0 | 0.00 | 0.00 | 0.00 | 1015.7 | ||
| 20260905123039 | -17 | 0.0 | 0.0 | 0.00 | 0.00 | 0.00 | 1015.7 | ||
| 20260905121537 | -17 | 0.0 | 0.0 | 0.00 | 0.00 | 0.00 | 1015.8 | ||
| 20260905120031 | -17 | 0.0 | 0.0 | 0.00 | 0.00 | 0.00 | 1015.8 | ||
| 20260905114529 | 8 | 119 | 0.0 | 4.8 | 0.00 | 0.00 | 0.00 | 83 | 1015.8 |
| 20260905113027 | 8 | 63 | 1.6 | 4.8 | 0.00 | 0.00 | 0.00 | 85 | 1015.8 |
| 20260905111547 | 7 | 71 | 3.2 | 4.8 | 0.00 | 0.00 | 0.00 | 84 | 1015.7 |
| 20260905110027 | 7 | 73 | 3.2 | 3.2 | 0.00 | 0.00 | 0.00 | 84 | 1015.7 |
| 20260905104525 | 8 | 83 | 1.6 | 4.8 | 0.00 | 0.00 | 0.00 | 82 | 1015.6 |
| 20260905103027 | 8 | 76 | 3.2 | 4.8 | 0.00 | 0.00 | 0.00 | 82 | 1015.6 |
| 20260905101523 | 9 | 249 | 1.6 | 6.4 | 0.00 | 0.00 | 0.00 | 81 | 1015.6 |
| 20260905100023 | 8 | 75 | 3.2 | 3.2 | 0.00 | 0.00 | 0.00 | 84 | 1015.6 |
| 20260905094521 | 8 | 78 | 1.6 | 3.2 | 0.00 | 0.00 | 0.00 | 84 | 1015.4 |
| 20260905093020 | 7 | 71 | 3.2 | 4.8 | 0.00 | 0.00 | 0.00 | 83 | 1015.4 |
| 20260905091519 | 7 | 59 | 3.2 | 3.2 | 0.00 | 0.00 | 0.00 | 83 | 1015.4 |
| 20260905090018 | 8 | 66 | 3.2 | 4.8 | 0.00 | 0.00 | 0.00 | 80 | 1015.3 |
| 20260905084519 | 9 | 99 | 1.6 | 8.0 | 0.00 | 0.00 | 0.00 | 80 | 1015.0 |
| 20260905083016 | 10 | 76 | 0.0 | 3.2 | 0.00 | 0.00 | 0.00 | 78 | 1015.1 |
| 20260905081514 | 9 | 77 | 0.0 | 3.2 | 0.00 | 0.00 | 0.00 | 82 | 1015.0 |
| 20260905080012 | 9 | 152 | 0.0 | 4.8 | 0.00 | 0.00 | 0.00 | 83 | 1015.2 |
| 20260905074513 | 8 | 132 | 3.2 | 8.0 | 0.00 | 0.00 | 0.00 | 84 | 1015.2 |
| 20260905073010 | 8 | 96 | 0.0 | 9.7 | 0.00 | 0.00 | 0.00 | 82 | 1015.3 |
| 20260905071506 | 8 | 126 | 8.0 | 11.3 | 0.00 | 0.00 | 0.00 | 84 | 1015.2 |
| 20260905070005 | 7 | 75 | 1.6 | 4.8 | 0.00 | 0.00 | 0.00 | 81 | 1015.0 |
| 20260905064559 | 8 | 72 | 1.6 | 3.2 | 0.00 | 0.00 | 0.00 | 77 | 1014.7 |
| 20260905063059 | 9 | 57 | 0.0 | 1.6 | 0.00 | 0.00 | 0.00 | 77 | 1014.4 |
| 20260905061559 | 8 | 44 | 1.6 | 4.8 | 0.00 | 0.00 | 0.00 | 75 | 1014.3 |
| 20260905060056 | 10 | 73 | 0.0 | 3.2 | 0.00 | 0.00 | 0.00 | 72 | 1014.4 |
| 20260905054555 | 11 | 305 | 0.0 | 4.8 | 0.00 | 0.00 | 0.00 | 70 | 1014.4 |
| 20260905053135 | 11 | 251 | 8.0 | 12.9 | 0.00 | 0.00 | 0.00 | 70 | 1014.3 |
| 20260905051554 | 12 | 309 | 3.2 | 12.9 | 0.00 | 0.00 | 0.00 | 69 | 1014.3 |
| 20260905050054 | 12 | 256 | 14.5 | 19.3 | 0.00 | 0.00 | 0.00 | 65 | 1014.3 |
| 20260905044552 | 11 | 83 | 0.0 | 3.2 | 0.00 | 0.00 | 0.00 | 68 | 1014.1 |
| 20260905043050 | 12 | 83 | 3.2 | 4.8 | 0.00 | 0.00 | 0.00 | 63 | 1013.9 |
| 20260905041549 | 12 | 82 | 0.0 | 3.2 | 0.00 | 0.00 | 0.00 | 63 | 1013.9 |
| 20260905040047 | 12 | 129 | 0.0 | 1.6 | 0.00 | 0.00 | 0.00 | 60 | 1013.8 |
| 20260905034550 | 12 | 130 | 0.0 | 3.2 | 0.00 | 0.00 | 0.00 | 61 | 1013.7 |
| 20260905033057 | 13 | 105 | 0.0 | 3.2 | 0.00 | 0.00 | 0.00 | 60 | 1013.7 |
| 20260905031547 | 13 | 72 | 1.6 | 4.8 | 0.00 | 0.00 | 0.00 | 60 | 1013.7 |
| 20260905030044 | 13 | 64 | 3.2 | 4.8 | 0.00 | 0.00 | 0.00 | 61 | 1013.6 |
| 20260905024542 | 13 | 65 | 4.8 | 8.0 | 0.00 | 0.00 | 0.00 | 61 | 1013.4 |
| 20260905023043 | 13 | 98 | 4.8 | 6.4 | 0.00 | 0.00 | 0.00 | 59 | 1013.4 |
| 20260905021540 | 14 | 74 | 4.8 | 6.4 | 0.00 | 0.00 | 0.00 | 56 | 1013.4 |
| 20260905020039 | 15 | 62 | 4.8 | 8.0 | 0.00 | 0.00 | 0.00 | 52 | 1013.3 |
| 20260905014539 | 16 | 48 | 6.4 | 9.7 | 0.00 | 0.00 | 0.00 | 50 | 1013.1 |
| 20260905013038 | 17 | 56 | 6.4 | 16.1 | 0.00 | 0.00 | 0.00 | 48 | 1013.0 |
| 20260905011538 | 17 | 59 | 4.8 | 11.3 | 0.00 | 0.00 | 0.00 | 46 | 1012.8 |
| 20260905010036 | 17 | 43 | 0.0 | 8.0 | 0.00 | 0.00 | 0.00 | 44 | 1012.8 |
| 20260905004535 | 16 | 23 | 0.0 | 3.2 | 0.00 | 0.00 | 0.00 | 47 | 1012.8 |
| 20260905003035 | 16 | 317 | 3.2 | 6.4 | 0.00 | 0.00 | 0.00 | 46 | 1012.7 |
| 20260905001533 | 16 | 47 | 1.6 | 6.4 | 0.00 | 0.00 | 0.00 | 48 | 1012.6 |
| 20260905000034 | 17 | 50 | 1.6 | 8.0 | 0.00 | 0.00 | 0.00 | 47 | 1012.7 |
| 20260904234533 | 17 | 19 | 4.8 | 11.3 | 0.00 | 0.00 | 0.00 | 48 | 1012.6 |
| 20260904233032 | 17 | 341 | 3.2 | 14.5 | 0.00 | 0.00 | 0.00 | 49 | 1012.6 |
| 20260904231535 | 16 | 43 | 4.8 | 12.9 | 0.00 | 0.00 | 0.00 | 51 | 1012.6 |